| time (UTC) | temp C | wind direction | speed KPH | gust KPH | rain 1hr cm | rain 24hr cm | rain mn cm | humidity % | barometer mb |
| 20260507192008 | 18 | 247 | 17.7 | 33.8 | 0.00 | 0.05 | 0.00 | 29 | 1014.7 |
| 20260507191511 | 18 | 266 | 20.9 | 35.4 | 0.00 | 0.05 | 0.00 | 29 | 1014.6 |
| 20260507191011 | 18 | 262 | 17.7 | 35.4 | 0.00 | 0.05 | 0.00 | 31 | 1014.7 |
| 20260507190510 | 18 | 258 | 19.3 | 30.6 | 0.00 | 0.05 | 0.00 | 30 | 1014.8 |
| 20260507190008 | 18 | 290 | 19.3 | 32.2 | 0.00 | 0.05 | 0.00 | 29 | 1014.9 |
| 20260507185507 | 18 | 281 | 16.1 | 32.2 | 0.00 | 0.28 | 0.00 | 30 | 1014.9 |
| 20260507185006 | 18 | 248 | 17.7 | 29.0 | 0.00 | 0.28 | 0.00 | 30 | 1015.0 |
| 20260507184511 | 18 | 278 | 14.5 | 25.7 | 0.00 | 0.28 | 0.00 | 33 | 1015.2 |
| 20260507184006 | 17 | 247 | 9.7 | 25.7 | 0.00 | 0.28 | 0.00 | 34 | 1015.3 |
| 20260507183506 | 17 | 334 | 14.5 | 25.7 | 0.00 | 0.28 | 0.00 | 32 | 1015.3 |
| 20260507183014 | 17 | 248 | 12.9 | 24.1 | 0.00 | 0.28 | 0.00 | 31 | 1015.3 |
| 20260507182510 | 17 | 242 | 14.5 | 24.1 | 0.00 | 0.28 | 0.00 | 31 | 1015.5 |
| 20260507182009 | 17 | 267 | 9.7 | 20.9 | 0.00 | 0.28 | 0.00 | 32 | 1015.4 |
| 20260507181509 | 17 | 250 | 12.9 | 19.3 | 0.00 | 0.28 | 0.00 | 33 | 1015.4 |
| 20260507181011 | 17 | 264 | 9.7 | 20.9 | 0.00 | 0.28 | 0.00 | 31 | 1015.4 |
| 20260507180512 | 17 | 249 | 9.7 | 20.9 | 0.00 | 0.28 | 0.00 | 34 | 1015.5 |
| 20260507180015 | 17 | 293 | 11.3 | 20.9 | 0.00 | 0.28 | 0.00 | 33 | 1015.5 |
| 20260507175513 | 17 | 278 | 9.7 | 24.1 | 0.00 | 0.53 | 0.00 | 33 | 1015.4 |
| 20260507175013 | 17 | 245 | 14.5 | 24.1 | 0.00 | 0.53 | 0.00 | 33 | 1015.5 |
| 20260507174519 | 17 | 264 | 12.9 | 22.5 | 0.00 | 0.53 | 0.00 | 34 | 1015.5 |
| 20260507174013 | 17 | 245 | 12.9 | 22.5 | 0.00 | 0.53 | 0.00 | 33 | 1015.5 |
| 20260507173511 | 17 | 246 | 8.0 | 16.1 | 0.00 | 0.53 | 0.00 | 36 | 1015.6 |
| 20260507173016 | 17 | 255 | 11.3 | 16.1 | 0.00 | 0.53 | 0.00 | 35 | 1015.7 |
| 20260507172511 | 17 | 258 | 11.3 | 19.3 | 0.00 | 0.53 | 0.00 | 35 | 1015.7 |
| 20260507172010 | 17 | 248 | 12.9 | 19.3 | 0.00 | 0.53 | 0.00 | 34 | 1015.7 |
| 20260507171514 | 17 | 264 | 11.3 | 19.3 | 0.00 | 0.53 | 0.00 | 33 | 1015.8 |
| 20260507171015 | 16 | 253 | 9.7 | 19.3 | 0.00 | 0.53 | 0.00 | 35 | 1015.8 |
| 20260507170514 | 16 | 249 | 11.3 | 19.3 | 0.00 | 0.53 | 0.00 | 34 | 1015.8 |
| 20260507170012 | 16 | 262 | 9.7 | 17.7 | 0.00 | 0.53 | 0.00 | 35 | 1015.8 |
| 20260507165512 | 16 | 274 | 6.4 | 17.7 | 0.00 | 0.69 | 0.00 | 35 | 1015.8 |
| 20260507165013 | 16 | 256 | 9.7 | 17.7 | 0.00 | 0.69 | 0.00 | 34 | 1015.8 |
| 20260507164516 | 16 | 254 | 11.3 | 17.7 | 0.00 | 0.69 | 0.00 | 34 | 1015.9 |
| 20260507164016 | 16 | 261 | 11.3 | 17.7 | 0.00 | 0.69 | 0.00 | 35 | 1016.0 |
| 20260507163516 | 16 | 240 | 8.0 | 19.3 | 0.00 | 0.69 | 0.00 | 38 | 1016.0 |
| 20260507163016 | 16 | 299 | 8.0 | 22.5 | 0.00 | 0.69 | 0.00 | 36 | 1016.0 |
| 20260507162516 | 16 | 283 | 14.5 | 22.5 | 0.00 | 0.69 | 0.00 | 34 | 1016.0 |
| 20260507162018 | 17 | 257 | 11.3 | 20.9 | 0.00 | 0.69 | 0.00 | 36 | 1016.0 |
| 20260507161518 | 16 | 221 | 8.0 | 14.5 | 0.00 | 0.69 | 0.00 | 40 | 1016.0 |
| 20260507161015 | 16 | 229 | 8.0 | 14.5 | 0.00 | 0.69 | 0.00 | 45 | 1016.1 |
| 20260507160516 | 15 | 176 | 8.0 | 14.5 | 0.00 | 0.69 | 0.00 | 44 | 1016.1 |
| 20260507160018 | 15 | 208 | 9.7 | 14.5 | 0.00 | 0.69 | 0.00 | 47 | 1016.1 |
| 20260507155520 | 13 | 214 | 8.0 | 16.1 | 0.00 | 0.81 | 0.00 | 49 | 1016.1 |
| 20260507155019 | 13 | 205 | 9.7 | 16.1 | 0.00 | 0.81 | 0.00 | 48 | 1016.1 |
| 20260507154515 | 12 | 213 | 9.7 | 14.5 | 0.00 | 0.81 | 0.00 | 51 | 1016.2 |
| 20260507154014 | 12 | 200 | 8.0 | 17.7 | 0.00 | 0.81 | 0.00 | 52 | 1016.3 |
| 20260507153513 | 12 | 181 | 8.0 | 17.7 | 0.00 | 0.81 | 0.00 | 52 | 1016.3 |
| 20260507153015 | 12 | 178 | 6.4 | 12.9 | 0.00 | 0.81 | 0.00 | 52 | 1016.4 |
| 20260507152514 | 11 | 143 | 3.2 | 9.7 | 0.00 | 0.81 | 0.00 | 53 | 1016.5 |
| 20260507152013 | 11 | 157 | 4.8 | 8.0 | 0.00 | 0.81 | 0.00 | 53 | 1016.5 |
| 20260507151519 | 11 | 175 | 4.8 | 9.7 | 0.00 | 0.81 | 0.00 | 54 | 1016.7 |
| 20260507151016 | 11 | 175 | 1.6 | 11.3 | 0.00 | 0.81 | 0.00 | 57 | 1016.6 |
| 20260507150515 | 10 | 177 | 8.0 | 12.9 | 0.00 | 0.81 | 0.00 | 55 | 1016.6 |
| 20260507150020 | 10 | 179 | 4.8 | 12.9 | 0.00 | 0.81 | 0.00 | 58 | 1016.6 |
| 20260507145519 | 10 | 184 | 6.4 | 12.9 | 0.00 | 0.86 | 0.00 | 59 | 1016.6 |
| 20260507145015 | 9 | 183 | 6.4 | 14.5 | 0.00 | 0.86 | 0.00 | 59 | 1016.6 |
| 20260507144525 | 9 | 183 | 4.8 | 14.5 | 0.00 | 0.86 | 0.00 | 59 | 1016.6 |
| 20260507144017 | 9 | 174 | 3.2 | 12.9 | 0.00 | 0.86 | 0.00 | 61 | 1016.7 |
| 20260507143515 | 8 | 188 | 4.8 | 12.9 | 0.00 | 0.86 | 0.00 | 62 | 1016.6 |
| 20260507143015 | 8 | 176 | 8.0 | 12.9 | 0.00 | 0.86 | 0.00 | 63 | 1016.5 |
| 20260507142514 | 7 | 197 | 6.4 | 11.3 | 0.00 | 0.86 | 0.00 | 64 | 1016.5 |
| 20260507142015 | 7 | 198 | 8.0 | 12.9 | 0.00 | 0.86 | 0.00 | 62 | 1016.5 |
| 20260507141514 | 7 | 196 | 8.0 | 12.9 | 0.00 | 0.86 | 0.00 | 60 | 1016.5 |
| 20260507141016 | 8 | 176 | 8.0 | 11.3 | 0.00 | 0.86 | 0.00 | 59 | 1016.5 |
| 20260507140515 | 8 | 198 | 6.4 | 11.3 | 0.00 | 0.86 | 0.00 | 58 | 1016.5 |
| 20260507140019 | 7 | 172 | 4.8 | 9.7 | 0.00 | 0.86 | 0.00 | 60 | 1016.5 |
| 20260507135521 | 7 | 171 | 4.8 | 9.7 | 0.00 | 0.89 | 0.00 | 62 | 1016.5 |
| 20260507135015 | 7 | 174 | 4.8 | 12.9 | 0.00 | 0.89 | 0.00 | 62 | 1016.6 |
| 20260507134516 | 7 | 186 | 4.8 | 12.9 | 0.00 | 0.89 | 0.00 | 63 | 1016.5 |
| 20260507134015 | 6 | 192 | 6.4 | 11.3 | 0.00 | 0.89 | 0.00 | 63 | 1016.5 |
| 20260507133516 | 6 | 193 | 6.4 | 14.5 | 0.00 | 0.89 | 0.00 | 63 | 1016.5 |
| 20260507133020 | 6 | 192 | 8.0 | 14.5 | 0.00 | 0.89 | 0.00 | 64 | 1016.5 |
| 20260507132522 | 6 | 203 | 8.0 | 14.5 | 0.00 | 0.89 | 0.00 | 64 | 1016.5 |
| 20260507132016 | 5 | 197 | 8.0 | 14.5 | 0.00 | 0.89 | 0.00 | 66 | 1016.5 |
| 20260507131525 | 5 | 200 | 6.4 | 12.9 | 0.00 | 0.89 | 0.00 | 68 | 1016.3 |
| 20260507131022 | 5 | 202 | 8.0 | 16.1 | 0.00 | 0.89 | 0.00 | 69 | 1016.3 |
| 20260507130517 | 4 | 218 | 8.0 | 16.1 | 0.00 | 0.89 | 0.00 | 69 | 1016.3 |
| 20260507130017 | 3 | 212 | 9.7 | 14.5 | 0.00 | 0.89 | 0.00 | 70 | 1016.2 |
| 20260507125519 | 3 | 203 | 8.0 | 16.1 | 0.00 | 0.89 | 0.00 | 70 | 1016.1 |
| 20260507125014 | 3 | 212 | 9.7 | 16.1 | 0.00 | 0.89 | 0.00 | 69 | 1016.1 |
| 20260507124519 | 3 | 205 | 8.0 | 16.1 | 0.00 | 0.89 | 0.00 | 69 | 1016.1 |
| 20260507124018 | 3 | 198 | 9.7 | 16.1 | 0.00 | 0.89 | 0.00 | 69 | 1016.0 |
| 20260507123517 | 3 | 200 | 8.0 | 14.5 | 0.00 | 0.89 | 0.00 | 69 | 1016.1 |
| 20260507123020 | 3 | 195 | 8.0 | 14.5 | 0.00 | 0.89 | 0.00 | 69 | 1016.1 |
| 20260507122517 | 3 | 186 | 8.0 | 14.5 | 0.00 | 0.89 | 0.00 | 69 | 1016.0 |
| 20260507122016 | 3 | 186 | 8.0 | 14.5 | 0.00 | 0.89 | 0.00 | 68 | 1015.9 |
| 20260507121516 | 3 | 193 | 8.0 | 16.1 | 0.00 | 0.89 | 0.00 | 68 | 1015.8 |
| 20260507121015 | 3 | 194 | 9.7 | 16.1 | 0.00 | 0.89 | 0.00 | 69 | 1015.8 |
| 20260507120514 | 2 | 191 | 8.0 | 14.5 | 0.00 | 0.89 | 0.00 | 70 | 1015.8 |
| 20260507120015 | 2 | 200 | 8.0 | 14.5 | 0.00 | 0.89 | 0.00 | 70 | 1015.9 |
| 20260507115515 | 2 | 181 | 4.8 | 14.5 | 0.00 | 0.89 | 0.00 | 69 | 1015.9 |
| 20260507115014 | 2 | 181 | 8.0 | 14.5 | 0.00 | 0.89 | 0.00 | 69 | 1015.9 |
| 20260507114515 | 2 | 186 | 8.0 | 17.7 | 0.00 | 0.89 | 0.00 | 69 | 1015.8 |
| 20260507114015 | 2 | 193 | 9.7 | 19.3 | 0.00 | 0.89 | 0.00 | 68 | 1015.9 |
| 20260507113514 | 2 | 193 | 9.7 | 19.3 | 0.00 | 0.89 | 0.00 | 68 | 1015.8 |
| 20260507113018 | 2 | 206 | 9.7 | 16.1 | 0.00 | 0.89 | 0.00 | 69 | 1015.8 |
| 20260507112517 | 2 | 200 | 11.3 | 17.7 | 0.00 | 0.89 | 0.00 | 69 | 1015.8 |
| 20260507112018 | 2 | 198 | 9.7 | 17.7 | 0.00 | 0.89 | 0.00 | 70 | 1015.7 |
| 20260507111518 | 2 | 202 | 9.7 | 14.5 | 0.00 | 0.89 | 0.00 | 70 | 1015.6 |
| 20260507111017 | 2 | 211 | 9.7 | 14.5 | 0.00 | 0.89 | 0.00 | 69 | 1015.7 |
| 20260507110516 | 2 | 200 | 8.0 | 14.5 | 0.00 | 0.89 | 0.00 | 69 | 1015.8 |
| 20260507110018 | 2 | 196 | 9.7 | 14.5 | 0.00 | 0.89 | 0.00 | 69 | 1015.8 |
| 20260507105515 | 2 | 196 | 9.7 | 14.5 | 0.00 | 0.89 | 0.00 | 70 | 1015.8 |
| 20260507105015 | 2 | 198 | 8.0 | 16.1 | 0.00 | 0.89 | 0.00 | 69 | 1015.8 |
| 20260507104520 | 2 | 186 | 8.0 | 16.1 | 0.00 | 0.89 | 0.00 | 69 | 1015.9 |
| 20260507104020 | 3 | 202 | 11.3 | 17.7 | 0.00 | 0.89 | 0.00 | 68 | 1015.8 |
| 20260507103518 | 3 | 205 | 11.3 | 17.7 | 0.00 | 0.89 | 0.00 | 68 | 1015.7 |
| 20260507103022 | 3 | 210 | 11.3 | 16.1 | 0.00 | 0.89 | 0.00 | 67 | 1015.8 |
| 20260507102520 | 3 | 210 | 9.7 | 17.7 | 0.00 | 0.89 | 0.00 | 67 | 1015.8 |
| 20260507102017 | 2 | 202 | 11.3 | 17.7 | 0.00 | 0.89 | 0.00 | 68 | 1015.8 |
| 20260507101533 | 2 | 201 | 11.3 | 17.7 | 0.00 | 0.89 | 0.00 | 69 | 1015.9 |
| 20260507101023 | 2 | 191 | 9.7 | 17.7 | 0.00 | 0.89 | 0.00 | 70 | 1016.1 |
| 20260507100519 | 2 | 212 | 8.0 | 12.9 | 0.00 | 0.89 | 0.00 | 71 | 1016.1 |
| 20260507100022 | 2 | 195 | 6.4 | 11.3 | 0.00 | 0.89 | 0.00 | 72 | 1016.1 |
| 20260507095516 | 2 | 184 | 6.4 | 11.3 | 0.00 | 0.89 | 0.00 | 72 | 1016.1 |
| 20260507095020 | 2 | 184 | 6.4 | 11.3 | 0.00 | 0.89 | 0.00 | 73 | 1016.2 |
| 20260507094518 | 2 | 176 | 6.4 | 11.3 | 0.00 | 0.89 | 0.00 | 73 | 1016.3 |
| 20260507094015 | 2 | 186 | 6.4 | 11.3 | 0.00 | 0.89 | 0.00 | 73 | 1016.3 |
| 20260507093515 | 2 | 186 | 6.4 | 11.3 | 0.00 | 0.89 | 0.00 | 72 | 1016.2 |
| 20260507093020 | 2 | 182 | 4.8 | 12.9 | 0.00 | 0.89 | 0.00 | 72 | 1016.2 |
| 20260507092519 | 2 | 181 | 4.8 | 14.5 | 0.00 | 0.89 | 0.00 | 71 | 1016.3 |
| 20260507092016 | 2 | 188 | 6.4 | 16.1 | 0.00 | 0.89 | 0.00 | 71 | 1016.3 |
| 20260507091519 | 2 | 207 | 9.7 | 19.3 | 0.00 | 0.89 | 0.00 | 72 | 1016.3 |
| 20260507091018 | 2 | 191 | 9.7 | 19.3 | 0.00 | 0.89 | 0.00 | 72 | 1016.2 |
| 20260507090519 | 2 | 214 | 11.3 | 17.7 | 0.00 | 0.89 | 0.00 | 74 | 1016.3 |
| 20260507090018 | 2 | 198 | 9.7 | 16.1 | 0.00 | 0.89 | 0.00 | 75 | 1016.3 |
| 20260507085516 | 2 | 196 | 11.3 | 16.1 | 0.00 | 0.89 | 0.00 | 76 | 1016.3 |
| 20260507085015 | 1 | 209 | 9.7 | 16.1 | 0.00 | 0.89 | 0.00 | 76 | 1016.2 |
| 20260507084518 | 1 | 207 | 9.7 | 17.7 | 0.00 | 0.89 | 0.00 | 77 | 1016.2 |
| 20260507084018 | 1 | 198 | 8.0 | 17.7 | 0.00 | 0.89 | 0.00 | 78 | 1016.3 |
| 20260507083518 | 1 | 192 | 8.0 | 12.9 | 0.00 | 0.89 | 0.00 | 78 | 1016.2 |
| 20260507083020 | 1 | 193 | 8.0 | 14.5 | 0.00 | 0.89 | 0.00 | 79 | 1016.2 |
| 20260507082522 | 1 | 200 | 8.0 | 14.5 | 0.00 | 0.89 | 0.00 | 79 | 1016.3 |
| 20260507082017 | 1 | 198 | 6.4 | 12.9 | 0.00 | 0.89 | 0.00 | 79 | 1016.3 |
| 20260507081522 | 1 | 195 | 8.0 | 12.9 | 0.00 | 0.89 | 0.00 | 79 | 1016.3 |
| 20260507081020 | 1 | 179 | 8.0 | 14.5 | 0.00 | 0.89 | 0.00 | 79 | 1016.5 |
| 20260507080520 | 1 | 176 | 6.4 | 16.1 | 0.00 | 0.89 | 0.00 | 79 | 1016.5 |
| 20260507080021 | 1 | 190 | 8.0 | 16.1 | 0.00 | 0.89 | 0.00 | 80 | 1016.5 |
| 20260507075526 | 1 | 196 | 8.0 | 16.1 | 0.00 | 0.89 | 0.00 | 80 | 1016.6 |
| 20260507075020 | 1 | 193 | 9.7 | 16.1 | 0.00 | 0.89 | 0.00 | 81 | 1016.7 |
| 20260507074520 | 1 | 200 | 9.7 | 14.5 | 0.00 | 0.89 | 0.00 | 82 | 1016.8 |
| 20260507074020 | 1 | 201 | 8.0 | 14.5 | 0.00 | 0.89 | 0.00 | 82 | 1016.7 |
| 20260507073522 | 1 | 207 | 9.7 | 16.1 | 0.00 | 0.89 | 0.00 | 82 | 1016.8 |
| 20260507073021 | 1 | 189 | 9.7 | 16.1 | 0.00 | 0.89 | 0.00 | 83 | 1016.8 |
| 20260507072521 | 1 | 199 | 9.7 | 16.1 | 0.00 | 0.89 | 0.00 | 83 | 1016.9 |
| 20260507072018 | 1 | 209 | 11.3 | 16.1 | 0.00 | 0.89 | 0.00 | 83 | 1017.0 |
| 20260507071519 | 1 | 193 | 9.7 | 16.1 | 0.00 | 0.89 | 0.00 | 84 | 1017.0 |
| 20260507071020 | 1 | 195 | 9.7 | 16.1 | 0.00 | 0.89 | 0.00 | 84 | 1017.0 |
| 20260507070522 | 1 | 192 | 9.7 | 14.5 | 0.00 | 0.89 | 0.00 | 84 | 1017.0 |
| 20260507070029 | 1 | 187 | 8.0 | 16.1 | 0.00 | 0.89 | 0.00 | 84 | 1017.1 |
| 20260507065522 | 1 | 200 | 8.0 | 16.1 | 0.00 | 0.89 | 0.00 | 84 | 1017.1 |
| 20260507065020 | 1 | 202 | 9.7 | 14.5 | 0.00 | 0.89 | 0.00 | 84 | 1017.2 |
| 20260507064533 | 1 | 193 | 9.7 | 16.1 | 0.00 | 0.89 | 0.00 | 84 | 1017.1 |
| 20260507064021 | 1 | 194 | 9.7 | 16.1 | 0.00 | 0.89 | 0.00 | 84 | 1017.1 |
| 20260507063524 | 1 | 183 | 8.0 | 14.5 | 0.00 | 0.89 | 0.00 | 85 | 1017.1 |
| 20260507063028 | 1 | 189 | 9.7 | 14.5 | 0.00 | 0.89 | 0.00 | 85 | 1017.2 |
| 20260507062520 | 1 | 206 | 8.0 | 14.5 | 0.00 | 0.89 | 0.00 | 85 | 1017.2 |
| 20260507062020 | 1 | 208 | 9.7 | 17.7 | 0.00 | 0.89 | 0.00 | 85 | 1017.3 |
| 20260507061524 | 1 | 202 | 11.3 | 17.7 | 0.00 | 0.89 | 0.00 | 85 | 1017.2 |
| 20260507061026 | 1 | 209 | 11.3 | 16.1 | 0.00 | 0.89 | 0.00 | 85 | 1017.2 |
| 20260507060521 | 1 | 191 | 11.3 | 16.1 | 0.00 | 0.89 | 0.00 | 85 | 1017.3 |
| 20260507060025 | 1 | 188 | 9.7 | 16.1 | 0.00 | 0.89 | 0.00 | 85 | 1017.3 |
| 20260507055521 | 1 | 207 | 11.3 | 16.1 | 0.00 | 0.89 | 0.89 | 86 | 1017.3 |
| 20260507055020 | 1 | 200 | 9.7 | 16.1 | 0.00 | 0.89 | 0.89 | 86 | 1017.3 |
| 20260507054525 | 1 | 196 | 9.7 | 12.9 | 0.00 | 0.89 | 0.89 | 86 | 1017.4 |
| 20260507054020 | 1 | 188 | 4.8 | 11.3 | 0.00 | 0.89 | 0.89 | 86 | 1017.5 |
| 20260507053519 | 1 | 188 | 4.8 | 11.3 | 0.00 | 0.89 | 0.89 | 86 | 1017.6 |
| 20260507053024 | 1 | 184 | 4.8 | 9.7 | 0.00 | 0.89 | 0.89 | 87 | 1017.7 |
| 20260507052523 | 0 | 182 | 4.8 | 9.7 | 0.00 | 0.89 | 0.89 | 87 | 1017.8 |
| 20260507052023 | 0 | 179 | 3.2 | 8.0 | 0.00 | 0.89 | 0.89 | 88 | 1017.9 |
| 20260507051521 | 0 | 177 | 3.2 | 4.8 | 0.00 | 0.89 | 0.89 | 87 | 1017.9 |
| 20260507051021 | 0 | 177 | 0.0 | 0.0 | 0.00 | 0.89 | 0.89 | 87 | 1018.0 |
| 20260507050520 | 0 | 177 | 0.0 | 0.0 | 0.00 | 0.89 | 0.89 | 87 | 1018.1 |
| 20260507050034 | 0 | 177 | 0.0 | 0.0 | 0.00 | 0.89 | 0.89 | 86 | 1018.1 |
| 20260507045524 | 0 | 177 | 0.0 | 0.0 | 0.00 | 0.89 | 0.89 | 86 | 1018.2 |
| 20260507045024 | 0 | 177 | 0.0 | 0.0 | 0.00 | 0.89 | 0.89 | 86 | 1018.2 |
| 20260507044533 | 0 | 176 | 0.0 | 0.0 | 0.00 | 0.89 | 0.89 | 87 | 1018.2 |
| 20260507044022 | 0 | 177 | 0.0 | 0.0 | 0.00 | 0.89 | 0.89 | 87 | 1018.2 |
| 20260507043523 | 0 | 177 | 0.0 | 0.0 | 0.00 | 0.89 | 0.89 | 87 | 1018.3 |
| 20260507043003 | 0 | 177 | 0.0 | 0.0 | 0.00 | 0.89 | 0.89 | 86 | 1018.2 |
| 20260507042504 | 0 | 177 | 0.0 | 0.0 | 0.00 | 0.89 | 0.89 | 86 | 1018.3 |
| 20260507042002 | 0 | 177 | 0.0 | 0.0 | 0.00 | 0.89 | 0.89 | 86 | 1018.2 |
| 20260507041520 | 0 | 177 | 0.0 | 0.0 | 0.00 | 0.89 | 0.89 | 86 | 1018.3 |
| 20260507041006 | 0 | 177 | 0.0 | 0.0 | 0.00 | 0.89 | 0.89 | 85 | 1018.2 |
| 20260507040506 | 0 | 177 | 0.0 | 0.0 | 0.00 | 0.89 | 0.89 | 84 | 1018.2 |
| 20260507040006 | 0 | 177 | 0.0 | 0.0 | 0.00 | 0.89 | 0.89 | 84 | 1018.4 |
| 20260507035505 | 0 | 177 | 0.0 | 0.0 | 0.00 | 0.89 | 0.89 | 84 | 1018.5 |
| 20260507035005 | 0 | 177 | 0.0 | 0.0 | 0.00 | 0.89 | 0.89 | 83 | 1018.5 |
| 20260507034515 | 1 | 177 | 0.0 | 0.0 | 0.00 | 0.89 | 0.89 | 83 | 1018.6 |
| 20260507034007 | 1 | 177 | 0.0 | 0.0 | 0.00 | 0.89 | 0.89 | 82 | 1018.5 |
| 20260507033508 | 1 | 176 | 0.0 | 0.0 | 0.00 | 0.89 | 0.89 | 82 | 1018.5 |
| 20260507033008 | 1 | 177 | 0.0 | 0.0 | 0.00 | 0.89 | 0.89 | 81 | 1018.5 |
| 20260507032508 | 1 | 177 | 0.0 | 0.0 | 0.00 | 0.89 | 0.89 | 80 | 1018.4 |
| 20260507032006 | 1 | 177 | 0.0 | 0.0 | 0.00 | 0.89 | 0.89 | 80 | 1018.4 |
| 20260507031529 | 1 | 177 | 0.0 | 0.0 | 0.00 | 0.89 | 0.89 | 79 | 1018.5 |
| 20260507031028 | 2 | 177 | 0.0 | 0.0 | 0.00 | 0.89 | 0.89 | 78 | 1018.5 |
| 20260507030526 | 2 | 177 | 0.0 | 0.0 | 0.00 | 0.89 | 0.89 | 78 | 1018.4 |
| 20260507030012 | 2 | 177 | 0.0 | 0.0 | 0.00 | 0.89 | 0.89 | 78 | 1018.4 |
| 20260507025507 | 2 | 177 | 0.0 | 0.0 | 0.00 | 0.89 | 0.89 | 78 | 1018.3 |
| 20260507025008 | 2 | 177 | 0.0 | 0.0 | 0.00 | 0.89 | 0.89 | 77 | 1018.2 |
| 20260507024507 | 2 | 177 | 0.0 | 3.2 | 0.00 | 0.89 | 0.89 | 76 | 1018.2 |
| 20260507024008 | 2 | 177 | 0.0 | 3.2 | 0.00 | 0.89 | 0.89 | 76 | 1018.2 |
| 20260507023511 | 2 | 177 | 0.0 | 6.4 | 0.00 | 0.89 | 0.89 | 75 | 1018.1 |
| 20260507023009 | 2 | 176 | 0.0 | 6.4 | 0.00 | 0.89 | 0.89 | 75 | 1018.1 |
| 20260507022513 | 2 | 177 | 0.0 | 4.8 | 0.00 | 0.89 | 0.89 | 75 | 1018.1 |
| 20260507022012 | 2 | 177 | 0.0 | 6.4 | 0.00 | 0.89 | 0.89 | 75 | 1018.0 |
| 20260507021507 | 3 | 177 | 0.0 | 6.4 | 0.00 | 0.89 | 0.89 | 74 | 1017.9 |
| 20260507021009 | 3 | 177 | 1.6 | 6.4 | 0.00 | 0.89 | 0.89 | 74 | 1018.0 |
| 20260507020508 | 3 | 177 | 1.6 | 6.4 | 0.00 | 0.89 | 0.89 | 74 | 1018.0 |
| 20260507020010 | 3 | 177 | 1.6 | 4.8 | 0.00 | 0.89 | 0.89 | 74 | 1017.9 |
| 20260507015507 | 3 | 178 | 1.6 | 6.4 | 0.00 | 0.94 | 0.89 | 74 | 1017.9 |
| 20260507015007 | 3 | 178 | 1.6 | 6.4 | 0.00 | 0.94 | 0.89 | 74 | 1017.8 |
| 20260507014516 | 3 | 177 | 3.2 | 0.0 | 0.00 | 0.00 | 0.89 | 73 | 1017.9 |
| 20260507014011 | 3 | 179 | 3.2 | 6.4 | 0.00 | 0.94 | 0.89 | 73 | 1017.9 |
| 20260507013513 | 3 | 181 | 3.2 | 12.9 | 0.00 | 0.94 | 0.89 | 72 | 1017.9 |
| 20260507013019 | 3 | 181 | 4.8 | 12.9 | 0.00 | 0.94 | 0.89 | 71 | 1017.8 |
| 20260507012511 | 4 | 180 | 3.2 | 11.3 | 0.00 | 0.94 | 0.89 | 71 | 1017.9 |
| 20260507012011 | 4 | 186 | 4.8 | 12.9 | 0.00 | 0.94 | 0.89 | 70 | 1018.0 |
| 20260507011517 | 4 | 184 | 4.8 | 12.9 | 0.00 | 0.94 | 0.89 | 69 | 1018.0 |
| 20260507011010 | 4 | 142 | 4.8 | 11.3 | 0.00 | 0.94 | 0.89 | 69 | 1018.0 |
| 20260507010512 | 4 | 179 | 4.8 | 14.5 | 0.00 | 0.94 | 0.89 | 69 | 1018.0 |
| 20260507010013 | 4 | 188 | 6.4 | 14.5 | 0.00 | 0.94 | 0.89 | 69 | 1018.1 |
| 20260507005513 | 5 | 208 | 6.4 | 11.3 | 0.00 | 0.99 | 0.89 | 69 | 1018.2 |
| 20260507005013 | 5 | 176 | 3.2 | 11.3 | 0.00 | 0.99 | 0.89 | 69 | 1018.2 |
| 20260507004529 | 5 | 189 | 4.8 | 11.3 | 0.00 | 0.99 | 0.89 | 69 | 1018.2 |
| 20260507004013 | 5 | 172 | 3.2 | 9.7 | 0.00 | 0.99 | 0.89 | 69 | 1018.2 |
| 20260507003513 | 5 | 126 | 4.8 | 9.7 | 0.00 | 0.99 | 0.89 | 68 | 1018.3 |
| 20260507003016 | 5 | 143 | 3.2 | 11.3 | 0.00 | 0.99 | 0.89 | 69 | 1018.3 |
| 20260507002516 | 5 | 153 | 4.8 | 14.5 | 0.00 | 0.99 | 0.89 | 68 | 1018.4 |
| 20260507002016 | 5 | 193 | 6.4 | 14.5 | 0.00 | 0.99 | 0.89 | 69 | 1018.4 |
| 20260507001515 | 5 | 184 | 6.4 | 12.9 | 0.00 | 0.99 | 0.89 | 68 | 1018.5 |
| 20260507001015 | 5 | 184 | 4.8 | 11.3 | 0.00 | 0.99 | 0.89 | 69 | 1018.6 |
| 20260507000514 | 5 | 168 | 3.2 | 11.3 | 0.00 | 0.99 | 0.89 | 68 | 1018.6 |
| 20260507000022 | 5 | 171 | 4.8 | 9.7 | 0.00 | 0.99 | 0.89 | 68 | 1018.6 |
| 20260506235515 | 5 | 169 | 3.2 | 9.7 | 0.00 | 0.99 | 0.89 | 70 | 1018.7 |
| 20260506235013 | 5 | 193 | 1.6 | 12.9 | 0.00 | 0.99 | 0.89 | 70 | 1018.8 |
| 20260506234525 | 5 | 197 | 6.4 | 12.9 | 0.00 | 0.99 | 0.89 | 70 | 1018.8 |
| 20260506234015 | 4 | 180 | 3.2 | 12.9 | 0.00 | 0.99 | 0.89 | 71 | 1018.8 |
| 20260506233513 | 4 | 181 | 3.2 | 12.9 | 0.00 | 0.99 | 0.89 | 71 | 1018.8 |
| 20260506233014 | 4 | 183 | 4.8 | 12.9 | 0.00 | 0.99 | 0.89 | 71 | 1018.7 |
| 20260506232513 | 4 | 198 | 6.4 | 12.9 | 0.00 | 0.99 | 0.89 | 71 | 1018.8 |
| 20260506232013 | 4 | 188 | 8.0 | 12.9 | 0.00 | 0.99 | 0.89 | 71 | 1018.7 |
| 20260506231529 | 3 | 210 | 6.4 | 12.9 | 0.00 | 0.99 | 0.89 | 72 | 1018.7 |
| 20260506231015 | 3 | 172 | 6.4 | 12.9 | 0.00 | 0.99 | 0.89 | 73 | 1018.8 |
| 20260506230515 | 3 | 181 | 4.8 | 12.9 | 0.00 | 0.99 | 0.89 | 73 | 1018.8 |
| 20260506230015 | 3 | 200 | 6.4 | 11.3 | 0.00 | 0.99 | 0.89 | 75 | 1018.8 |
| 20260506225517 | 3 | 202 | 8.0 | 12.9 | 0.00 | 1.12 | 0.89 | 72 | 1018.9 |
| 20260506225016 | 3 | 177 | 6.4 | 12.9 | 0.00 | 1.12 | 0.89 | 73 | 1019.0 |
| 20260506224514 | 3 | 182 | 4.8 | 11.3 | 0.00 | 1.12 | 0.89 | 74 | 1019.0 |
| 20260506224013 | 3 | 195 | 4.8 | 9.7 | 0.00 | 1.12 | 0.89 | 77 | 1019.0 |
| 20260506223513 | 3 | 207 | 3.2 | 9.7 | 0.00 | 1.12 | 0.89 | 76 | 1019.1 |
| 20260506223024 | 3 | 206 | 4.8 | 11.3 | 0.00 | 1.12 | 0.89 | 75 | 1019.1 |
| 20260506222516 | 3 | 210 | 4.8 | 12.9 | 0.00 | 1.12 | 0.89 | 76 | 1019.2 |
| 20260506222016 | 3 | 210 | 8.0 | 12.9 | 0.00 | 1.12 | 0.89 | 76 | 1019.3 |
| 20260506221516 | 2 | 235 | 4.8 | 9.7 | 0.00 | 1.12 | 0.89 | 73 | 1019.4 |
| 20260506221019 | 3 | 231 | 4.8 | 9.7 | 0.00 | 1.12 | 0.89 | 73 | 1019.4 |
| 20260506220518 | 3 | 241 | 6.4 | 9.7 | 0.00 | 1.12 | 0.89 | 75 | 1019.4 |
| 20260506220019 | 3 | 239 | 1.6 | 9.7 | 0.00 | 1.12 | 0.89 | 78 | 1019.4 |
| 20260506215518 | 2 | 237 | 1.6 | 9.7 | 0.00 | 1.22 | 0.89 | 76 | 1019.6 |
| 20260506215015 | 2 | 232 | 1.6 | 9.7 | 0.00 | 1.22 | 0.89 | 77 | 1019.6 |
| 20260506214518 | 2 | 233 | 3.2 | 9.7 | 0.00 | 1.22 | 0.89 | 77 | 1019.6 |
| 20260506214018 | 2 | 232 | 4.8 | 9.7 | 0.00 | 1.22 | 0.89 | 77 | 1019.9 |
| 20260506213520 | 2 | 234 | 4.8 | 11.3 | 0.00 | 1.22 | 0.89 | 79 | 1019.8 |
| 20260506213018 | 2 | 238 | 4.8 | 11.3 | 0.00 | 1.22 | 0.89 | 78 | 1019.7 |
| 20260506212518 | 2 | 257 | 1.6 | 8.0 | 0.00 | 1.22 | 0.89 | 78 | 1019.8 |
| 20260506212017 | 2 | 262 | 4.8 | 8.0 | 0.00 | 1.22 | 0.89 | 77 | 1019.8 |
| 20260506211531 | 2 | 272 | 3.2 | 9.7 | 0.00 | 1.22 | 0.89 | 75 | 1019.9 |
| 20260506211021 | 2 | 288 | 3.2 | 9.7 | 0.00 | 1.22 | 0.89 | 76 | 1019.9 |
| 20260506210521 | 2 | 302 | 0.0 | 6.4 | 0.00 | 1.22 | 0.89 | 75 | 1019.9 |
| 20260506210025 | 2 | 302 | 0.0 | 6.4 | 0.00 | 1.22 | 0.89 | 77 | 1020.0 |
| 20260506205522 | 2 | 303 | 0.0 | 9.7 | 0.00 | 1.35 | 0.89 | 76 | 1020.0 |
| 20260506205020 | 2 | 303 | 1.6 | 9.7 | 0.00 | 1.35 | 0.89 | 77 | 1020.2 |
| 20260506204520 | 2 | 288 | 3.2 | 8.0 | 0.00 | 1.35 | 0.89 | 78 | 1020.3 |
| 20260506204020 | 2 | 281 | 1.6 | 8.0 | 0.00 | 1.35 | 0.89 | 77 | 1020.4 |
| 20260506203521 | 2 | 283 | 0.0 | 6.4 | 0.00 | 1.35 | 0.89 | 78 | 1020.4 |
| 20260506203028 | 2 | 284 | 4.8 | 6.4 | 0.00 | 1.35 | 0.89 | 79 | 1020.4 |
| 20260506202524 | 2 | 285 | 0.0 | 0.0 | 0.00 | 1.35 | 0.89 | 78 | 1020.5 |
| 20260506202024 | 2 | 285 | 0.0 | 6.4 | 0.03 | 1.35 | 0.89 | 79 | 1020.5 |
| 20260506201531 | 2 | 285 | 1.6 | 6.4 | 0.03 | 1.35 | 0.89 | 79 | 1020.5 |
| 20260506201021 | 2 | 285 | 3.2 | 6.4 | 0.03 | 1.35 | 0.89 | 77 | 1020.5 |
| 20260506200520 | 3 | 285 | 0.0 | 4.8 | 0.05 | 1.35 | 0.89 | 79 | 1020.5 |
| 20260506200024 | 3 | 285 | 1.6 | 4.8 | 0.05 | 1.35 | 0.89 | 77 | 1020.5 |
| 20260506195524 | 3 | 285 | 0.0 | 4.8 | 0.05 | 1.35 | 0.89 | 80 | 1020.6 |
| 20260506195023 | 3 | 284 | 1.6 | 4.8 | 0.08 | 1.35 | 0.89 | 81 | 1020.6 |
| 20260506194528 | 3 | 284 | 0.0 | 3.2 | 0.08 | 1.35 | 0.89 | 83 | 1020.6 |
| 20260506194026 | 2 | 284 | 0.0 | 6.4 | 0.10 | 1.35 | 0.89 | 81 | 1020.7 |
| 20260506193522 | 2 | 284 | 0.0 | 6.4 | 0.10 | 1.35 | 0.89 | 84 | 1020.8 |
| 20260506193024 | 2 | 304 | 3.2 | 6.4 | 0.13 | 1.35 | 0.89 | 83 | 1020.8 |
| 20260506192523 | 2 | 304 | 1.6 | 8.0 | 0.13 | 1.35 | 0.89 | 88 | 1020.8 |